contact:dominique.lefevre@mio.osupytheas.fr, maurice.libes@osupytheas.fr, didier.mallarino@osupytheas.fr
Project:EMSO http://www.emso-fr.org/EMSO-France
Depth: 2436.0 m
Title:EMSO Ligure Ouest : Data MII capteur MICROCAT
DateTime_Computer,Latitude,Longitude,Temperature,Conductivity,Pressure,DateTime_Instrument
DateTime_Computer,Latitude,Longitude,degC,S m-1,dbar,DateTime_Instrument
2020-08-13T00:01:38Z,42.805,6.029,13.2968,4.59973,2470.156,2020-8-13T02:02:27Z
2020-08-13T00:04:42Z,42.805,6.029,13.2973,4.59973,2470.171,2020-8-13T02:05:31Z
2020-08-13T00:07:45Z,42.805,6.029,13.2971,4.59974,2470.18,2020-8-13T02:08:34Z
2020-08-13T00:10:48Z,42.805,6.029,13.2969,4.59974,2470.18,2020-8-13T02:11:37Z
2020-08-13T00:13:51Z,42.805,6.029,13.2974,4.59973,2470.194,2020-8-13T02:14:41Z
2020-08-13T00:16:55Z,42.805,6.029,13.2969,4.59973,2470.18,2020-8-13T02:17:44Z
2020-08-13T00:19:58Z,42.805,6.029,13.2972,4.59975,2470.18,2020-8-13T02:20:47Z
2020-08-13T00:23:01Z,42.805,6.029,13.2969,4.59973,2470.133,2020-8-13T02:23:50Z
2020-08-13T00:26:05Z,42.805,6.029,13.2968,4.59973,2470.171,2020-8-13T02:26:54Z
2020-08-13T00:29:08Z,42.805,6.029,13.2971,4.59975,2470.217,2020-8-13T02:29:57Z
2020-08-13T00:32:11Z,42.805,6.029,13.2968,4.59973,2470.203,2020-8-13T02:33:00Z
2020-08-13T00:35:14Z,42.805,6.029,13.2969,4.59973,2470.18,2020-8-13T02:36:03Z
2020-08-13T00:38:18Z,42.805,6.029,13.2974,4.59973,2470.189,2020-8-13T02:39:07Z
2020-08-13T00:41:21Z,42.805,6.029,13.2973,4.59973,2470.203,2020-8-13T02:42:10Z
2020-08-13T00:44:24Z,42.805,6.029,13.2972,4.59973,2470.194,2020-8-13T02:45:13Z
2020-08-13T00:47:27Z,42.805,6.029,13.2968,4.59973,2470.18,2020-8-13T02:48:16Z
2020-08-13T00:50:31Z,42.805,6.029,13.2972,4.59975,2470.217,2020-8-13T02:51:20Z
2020-08-13T00:53:34Z,42.805,6.029,13.2971,4.59974,2470.166,2020-8-13T02:54:23Z
2020-08-13T00:56:37Z,42.805,6.029,13.2968,4.59973,2470.189,2020-8-13T02:57:26Z
2020-08-13T00:59:41Z,42.805,6.029,13.2971,4.59973,2470.194,2020-8-13T03:00:30Z
2020-08-13T01:02:44Z,42.805,6.029,13.2970,4.59973,2470.194,2020-8-13T03:03:33Z
2020-08-13T01:05:47Z,42.805,6.029,13.2974,4.59973,2470.194,2020-8-13T03:06:36Z
2020-08-13T01:08:51Z,42.805,6.029,13.2970,4.59973,2470.18,2020-8-13T03:09:40Z
2020-08-13T01:11:54Z,42.805,6.029,13.2971,4.59973,2470.217,2020-8-13T03:12:43Z
2020-08-13T01:14:57Z,42.805,6.029,13.2971,4.59973,2470.203,2020-8-13T03:15:46Z
2020-08-13T01:18:01Z,42.805,6.029,13.2972,4.59974,2470.217,2020-8-13T03:18:50Z
2020-08-13T01:21:04Z,42.805,6.029,13.2971,4.59973,2470.203,2020-8-13T03:21:53Z
2020-08-13T01:24:07Z,42.805,6.029,13.2971,4.59974,2470.18,2020-8-13T03:24:56Z
2020-08-13T01:27:10Z,42.805,6.029,13.2972,4.59973,2470.18,2020-8-13T03:27:59Z
2020-08-13T01:30:14Z,42.805,6.029,13.2970,4.59973,2470.18,2020-8-13T03:31:03Z
2020-08-13T01:33:17Z,42.805,6.029,13.2971,4.59973,2470.203,2020-8-13T03:34:06Z
2020-08-13T01:36:20Z,42.805,6.029,13.2970,4.59973,2470.203,2020-8-13T03:37:09Z
2020-08-13T01:39:23Z,42.805,6.029,13.2971,4.59973,2470.203,2020-8-13T03:40:12Z
2020-08-13T01:42:26Z,42.805,6.029,13.2974,4.59975,2470.217,2020-8-13T03:43:15Z
2020-08-13T01:45:30Z,42.805,6.029,13.2968,4.59973,2470.203,2020-8-13T03:46:19Z
2020-08-13T01:48:33Z,42.805,6.029,13.2967,4.59973,2470.171,2020-8-13T03:49:22Z
2020-08-13T01:51:36Z,42.805,6.029,13.2973,4.59973,2470.18,2020-8-13T03:52:25Z
2020-08-13T01:54:39Z,42.805,6.029,13.2970,4.59973,2470.18,2020-8-13T03:55:29Z
2020-08-13T01:57:43Z,42.805,6.029,13.2971,4.59974,2470.203,2020-8-13T03:58:32Z
2020-08-13T02:00:46Z,42.805,6.029,13.2971,4.59975,2470.156,2020-8-13T04:01:35Z
2020-08-13T02:03:49Z,42.805,6.029,13.2968,4.59973,2470.194,2020-8-13T04:04:38Z
2020-08-13T02:06:52Z,42.805,6.029,13.2972,4.59973,2470.203,2020-8-13T04:07:41Z
2020-08-13T02:09:56Z,42.805,6.029,13.2970,4.59973,2470.203,2020-8-13T04:10:45Z
2020-08-13T02:12:59Z,42.805,6.029,13.2975,4.59973,2470.194,2020-8-13T04:13:48Z
2020-08-13T02:16:02Z,42.805,6.029,13.2971,4.59973,2470.194,2020-8-13T04:16:51Z
2020-08-13T02:19:05Z,42.805,6.029,13.2972,4.59973,2470.171,2020-8-13T04:19:54Z
2020-08-13T02:22:09Z,42.805,6.029,13.2968,4.59973,2470.18,2020-8-13T04:22:58Z
2020-08-13T02:25:12Z,42.805,6.029,13.2973,4.59973,2470.156,2020-8-13T04:26:01Z
2020-08-13T02:28:15Z,42.805,6.029,13.2971,4.59973,2470.166,2020-8-13T04:29:04Z
2020-08-13T02:31:18Z,42.805,6.029,13.2971,4.59973,2470.156,2020-8-13T04:32:07Z
2020-08-13T02:34:21Z,42.805,6.029,13.2968,4.59974,2470.194,2020-8-13T04:35:10Z
2020-08-13T02:37:25Z,42.805,6.029,13.2968,4.59973,2470.194,2020-8-13T04:38:14Z
2020-08-13T02:40:28Z,42.805,6.029,13.2966,4.59973,2470.217,2020-8-13T04:41:17Z
2020-08-13T02:43:31Z,42.805,6.029,13.2967,4.59973,2470.171,2020-8-13T04:44:20Z
2020-08-13T02:46:34Z,42.805,6.029,13.2969,4.59972,2470.18,2020-8-13T04:47:23Z
2020-08-13T02:49:38Z,42.805,6.029,13.2967,4.59973,2470.18,2020-8-13T04:50:27Z
2020-08-13T02:52:41Z,42.805,6.029,13.2973,4.59974,2470.203,2020-8-13T04:53:30Z
2020-08-13T02:55:44Z,42.805,6.029,13.2970,4.59973,2470.18,2020-8-13T04:56:33Z
2020-08-13T02:58:47Z,42.805,6.029,13.2969,4.59973,2470.203,2020-8-13T04:59:36Z
2020-08-13T03:01:50Z,42.805,6.029,13.2970,4.59973,2470.18,2020-8-13T05:02:39Z
2020-08-13T03:04:54Z,42.805,6.029,13.2971,4.59973,2470.194,2020-8-13T05:05:43Z
2020-08-13T03:07:57Z,42.805,6.029,13.2971,4.59973,2470.203,2020-8-13T05:08:46Z
2020-08-13T03:11:00Z,42.805,6.029,13.2967,4.59973,2470.171,2020-8-13T05:11:49Z
2020-08-13T03:14:03Z,42.805,6.029,13.2975,4.59973,2470.194,2020-8-13T05:14:52Z
2020-08-13T03:17:07Z,42.805,6.029,13.2967,4.59974,2470.156,2020-8-13T05:17:56Z
2020-08-13T03:20:10Z,42.805,6.029,13.2976,4.59973,2470.156,2020-8-13T05:20:59Z
2020-08-13T03:23:13Z,42.805,6.029,13.2971,4.59974,2470.18,2020-8-13T05:24:02Z
2020-08-13T03:26:17Z,42.805,6.029,13.2973,4.59974,2470.194,2020-8-13T05:27:06Z
2020-08-13T03:29:20Z,42.805,6.029,13.2971,4.59973,2470.18,2020-8-13T05:30:09Z
2020-08-13T03:32:23Z,42.805,6.029,13.2967,4.59973,2470.18,2020-8-13T05:33:12Z
2020-08-13T03:35:26Z,42.805,6.029,13.2973,4.59973,2470.156,2020-8-13T05:36:15Z
2020-08-13T03:38:29Z,42.805,6.029,13.2973,4.59973,2470.194,2020-8-13T05:39:18Z
2020-08-13T03:41:33Z,42.805,6.029,13.2968,4.59973,2470.194,2020-8-13T05:42:22Z
2020-08-13T03:44:36Z,42.805,6.029,13.2975,4.59973,2470.156,2020-8-13T05:45:25Z
2020-08-13T03:47:39Z,42.805,6.029,13.2968,4.59973,2470.156,2020-8-13T05:48:28Z
2020-08-13T03:50:43Z,42.805,6.029,13.2970,4.59974,2470.156,2020-8-13T05:51:32Z
2020-08-13T03:53:46Z,42.805,6.029,13.2970,4.59975,2470.194,2020-8-13T05:54:35Z
2020-08-13T03:56:49Z,42.805,6.029,13.2971,4.59973,2470.156,2020-8-13T05:57:38Z
2020-08-13T03:59:52Z,42.805,6.029,13.2973,4.59973,2470.156,2020-8-13T06:00:41Z
2020-08-13T04:02:55Z,42.805,6.029,13.2969,4.59973,2470.156,2020-8-13T06:03:44Z
2020-08-13T04:05:59Z,42.805,6.029,13.2972,4.59973,2470.18,2020-8-13T06:06:48Z
2020-08-13T04:09:02Z,42.805,6.029,13.2974,4.59973,2470.156,2020-8-13T06:09:51Z
2020-08-13T04:12:05Z,42.805,6.029,13.2971,4.59973,2470.156,2020-8-13T06:12:54Z
2020-08-13T04:15:09Z,42.805,6.029,13.2974,4.59973,2470.18,2020-8-13T06:15:58Z
2020-08-13T04:18:12Z,42.805,6.029,13.2973,4.59973,2470.171,2020-8-13T06:19:01Z
2020-08-13T04:21:15Z,42.805,6.029,13.2971,4.59973,2470.147,2020-8-13T06:22:04Z
2020-08-13T04:24:18Z,42.805,6.029,13.2971,4.59974,2470.133,2020-8-13T06:25:07Z
2020-08-13T04:27:22Z,42.805,6.029,13.2968,4.59973,2470.147,2020-8-13T06:28:11Z
2020-08-13T04:30:25Z,42.805,6.029,13.2971,4.59973,2470.133,2020-8-13T06:31:14Z
2020-08-13T04:33:28Z,42.805,6.029,13.2973,4.59973,2470.133,2020-8-13T06:34:17Z
2020-08-13T04:36:32Z,42.805,6.029,13.2971,4.59973,2470.133,2020-8-13T06:37:21Z
2020-08-13T04:39:35Z,42.805,6.029,13.2970,4.59973,2470.133,2020-8-13T06:40:24Z
2020-08-13T04:42:38Z,42.805,6.029,13.2969,4.59973,2470.147,2020-8-13T06:43:27Z
2020-08-13T04:45:41Z,42.805,6.029,13.2968,4.59973,2470.133,2020-8-13T06:46:30Z
2020-08-13T04:48:45Z,42.805,6.029,13.2967,4.59974,2470.156,2020-8-13T06:49:34Z
2020-08-13T04:51:48Z,42.805,6.029,13.2968,4.59973,2470.133,2020-8-13T06:52:37Z
2020-08-13T04:54:51Z,42.805,6.029,13.2974,4.59973,2470.171,2020-8-13T06:55:40Z
2020-08-13T04:57:54Z,42.805,6.029,13.2970,4.59974,2470.147,2020-8-13T06:58:43Z
2020-08-13T05:00:58Z,42.805,6.029,13.2970,4.59973,2470.156,2020-8-13T07:01:47Z
2020-08-13T05:04:01Z,42.805,6.029,13.2974,4.59975,2470.147,2020-8-13T07:04:50Z
2020-08-13T05:07:04Z,42.805,6.029,13.2968,4.59973,2470.133,2020-8-13T07:07:53Z
2020-08-13T05:10:07Z,42.805,6.029,13.2974,4.59973,2470.147,2020-8-13T07:10:56Z
2020-08-13T05:13:10Z,42.805,6.029,13.2968,4.59973,2470.171,2020-8-13T07:14:00Z
2020-08-13T05:16:14Z,42.805,6.029,13.2968,4.59975,2470.133,2020-8-13T07:17:03Z
2020-08-13T05:19:17Z,42.805,6.029,13.2974,4.59973,2470.133,2020-8-13T07:20:06Z
2020-08-13T05:22:20Z,42.805,6.029,13.2973,4.59973,2470.124,2020-8-13T07:23:09Z
2020-08-13T05:25:23Z,42.805,6.029,13.2968,4.59972,2470.133,2020-8-13T07:26:12Z
2020-08-13T05:28:27Z,42.805,6.029,13.2972,4.59972,2470.156,2020-8-13T07:29:16Z
2020-08-13T05:31:30Z,42.805,6.029,13.2971,4.59973,2470.171,2020-8-13T07:32:19Z
2020-08-13T05:34:33Z,42.805,6.029,13.2969,4.59972,2470.147,2020-8-13T07:35:22Z
2020-08-13T05:37:37Z,42.805,6.029,13.2968,4.59972,2470.11,2020-8-13T07:38:26Z
2020-08-13T05:40:40Z,42.805,6.029,13.2969,4.59973,2470.133,2020-8-13T07:41:29Z
2020-08-13T05:43:43Z,42.805,6.029,13.2973,4.59972,2470.156,2020-8-13T07:44:32Z
2020-08-13T05:46:46Z,42.805,6.029,13.2972,4.59973,2470.11,2020-8-13T07:47:35Z
2020-08-13T05:49:50Z,42.805,6.029,13.2971,4.59973,2470.156,2020-8-13T07:50:39Z
2020-08-13T05:52:53Z,42.805,6.029,13.2973,4.59974,2470.11,2020-8-13T07:53:42Z
2020-08-13T05:55:56Z,42.805,6.029,13.2971,4.59974,2470.133,2020-8-13T07:56:45Z
2020-08-13T05:58:59Z,42.805,6.029,13.2971,4.59972,2470.087,2020-8-13T07:59:48Z
2020-08-13T06:02:03Z,42.805,6.029,13.2973,4.59973,2470.133,2020-8-13T08:02:52Z
2020-08-13T06:05:06Z,42.805,6.029,13.2974,4.59973,2470.124,2020-8-13T08:05:55Z
2020-08-13T06:08:09Z,42.805,6.029,13.2976,4.59973,2470.11,2020-8-13T08:08:58Z
2020-08-13T06:11:12Z,42.805,6.029,13.2972,4.59973,2470.133,2020-8-13T08:12:01Z
2020-08-13T06:14:15Z,42.805,6.029,13.2971,4.59972,2470.11,2020-8-13T08:15:05Z
2020-08-13T06:17:19Z,42.805,6.029,13.2970,4.59974,2470.124,2020-8-13T08:18:08Z
2020-08-13T06:20:22Z,42.805,6.029,13.2971,4.59973,2470.124,2020-8-13T08:21:11Z
2020-08-13T06:23:25Z,42.805,6.029,13.2974,4.59973,2470.133,2020-8-13T08:24:14Z
2020-08-13T06:26:28Z,42.805,6.029,13.2975,4.59973,2470.11,2020-8-13T08:27:17Z
2020-08-13T06:29:32Z,42.805,6.029,13.2968,4.59973,2470.124,2020-8-13T08:30:21Z
2020-08-13T06:32:35Z,42.805,6.029,13.2971,4.59975,2470.147,2020-8-13T08:33:24Z
2020-08-13T06:35:38Z,42.805,6.029,13.2968,4.59973,2470.133,2020-8-13T08:36:27Z
2020-08-13T06:38:41Z,42.805,6.029,13.2970,4.59973,2470.11,2020-8-13T08:39:30Z
2020-08-13T06:41:45Z,42.805,6.029,13.2970,4.59972,2470.147,2020-8-13T08:42:34Z
2020-08-13T06:44:48Z,42.805,6.029,13.2972,4.59973,2470.124,2020-8-13T08:45:37Z
2020-08-13T06:47:51Z,42.805,6.029,13.2968,4.59972,2470.133,2020-8-13T08:48:40Z
2020-08-13T06:50:54Z,42.805,6.029,13.2968,4.59973,2470.147,2020-8-13T08:51:43Z
2020-08-13T06:53:58Z,42.805,6.029,13.2971,4.59975,2470.156,2020-8-13T08:54:47Z
2020-08-13T06:57:01Z,42.805,6.029,13.2971,4.59973,2470.11,2020-8-13T08:57:50Z
2020-08-13T07:00:04Z,42.805,6.029,13.2972,4.59974,2470.124,2020-8-13T09:00:53Z
2020-08-13T07:03:07Z,42.805,6.029,13.2974,4.59973,2470.087,2020-8-13T09:03:56Z
2020-08-13T07:06:11Z,42.805,6.029,13.2972,4.59973,2470.133,2020-8-13T09:07:00Z
2020-08-13T07:09:14Z,42.805,6.029,13.2970,4.59973,2470.133,2020-8-13T09:10:03Z
2020-08-13T07:12:17Z,42.805,6.029,13.2973,4.59973,2470.11,2020-8-13T09:13:06Z
2020-08-13T07:15:20Z,42.805,6.029,13.2974,4.59973,2470.087,2020-8-13T09:16:09Z
2020-08-13T07:18:23Z,42.805,6.029,13.2972,4.59973,2470.11,2020-8-13T09:19:12Z
2020-08-13T07:21:27Z,42.805,6.029,13.2968,4.59973,2470.1,2020-8-13T09:22:16Z
2020-08-13T07:24:30Z,42.805,6.029,13.2972,4.59974,2470.11,2020-8-13T09:25:19Z
2020-08-13T07:27:33Z,42.805,6.029,13.2970,4.59973,2470.11,2020-8-13T09:28:22Z
2020-08-13T07:30:36Z,42.805,6.029,13.2972,4.59973,2470.133,2020-8-13T09:31:25Z
2020-08-13T07:33:40Z,42.805,6.029,13.2970,4.59971,2470.124,2020-8-13T09:34:29Z
2020-08-13T07:36:43Z,42.805,6.029,13.2972,4.59973,2470.124,2020-8-13T09:37:32Z
2020-08-13T07:39:46Z,42.805,6.029,13.2974,4.59972,2470.1,2020-8-13T09:40:35Z
2020-08-13T07:42:49Z,42.805,6.029,13.2970,4.59972,2470.11,2020-8-13T09:43:39Z
2020-08-13T07:45:53Z,42.805,6.029,13.2969,4.59972,2470.1,2020-8-13T09:46:42Z
2020-08-13T07:48:56Z,42.805,6.029,13.2971,4.59973,2470.11,2020-8-13T09:49:45Z
2020-08-13T07:51:59Z,42.805,6.029,13.2974,4.59973,2470.1,2020-8-13T09:52:48Z
2020-08-13T07:55:02Z,42.805,6.029,13.2968,4.59971,2470.124,2020-8-13T09:55:51Z
2020-08-13T07:58:06Z,42.805,6.029,13.2971,4.59972,2470.11,2020-8-13T09:58:55Z
2020-08-13T08:01:09Z,42.805,6.029,13.2971,4.59973,2470.087,2020-8-13T10:01:58Z
2020-08-13T08:04:12Z,42.805,6.029,13.2967,4.59973,2470.1,2020-8-13T10:05:01Z
2020-08-13T08:07:15Z,42.805,6.029,13.2969,4.59973,2470.096,2020-8-13T10:08:04Z
2020-08-13T08:10:19Z,42.805,6.029,13.2971,4.59971,2470.1,2020-8-13T10:11:08Z
2020-08-13T08:13:22Z,42.805,6.029,13.2973,4.59974,2470.11,2020-8-13T10:14:11Z
2020-08-13T08:16:25Z,42.805,6.029,13.2971,4.59974,2470.087,2020-8-13T10:17:14Z
2020-08-13T08:19:28Z,42.805,6.029,13.2968,4.59972,2470.077,2020-8-13T10:20:17Z
2020-08-13T08:22:32Z,42.805,6.029,13.2976,4.59973,2470.1,2020-8-13T10:23:21Z
2020-08-13T08:25:35Z,42.805,6.029,13.2968,4.59973,2470.11,2020-8-13T10:26:24Z
2020-08-13T08:28:38Z,42.805,6.029,13.2974,4.59972,2470.11,2020-8-13T10:29:27Z
2020-08-13T08:31:41Z,42.805,6.029,13.2971,4.59975,2470.124,2020-8-13T10:32:30Z
2020-08-13T08:34:44Z,42.805,6.029,13.2969,4.59973,2470.124,2020-8-13T10:35:33Z
2020-08-13T08:37:48Z,42.805,6.029,13.2974,4.59973,2470.11,2020-8-13T10:38:37Z
2020-08-13T08:40:51Z,42.805,6.029,13.2968,4.59974,2470.133,2020-8-13T10:41:40Z
2020-08-13T08:43:54Z,42.805,6.029,13.2973,4.59975,2470.087,2020-8-13T10:44:43Z
2020-08-13T08:46:57Z,42.805,6.029,13.2969,4.59973,2470.124,2020-8-13T10:47:46Z
2020-08-13T08:50:01Z,42.805,6.029,13.2973,4.59973,2470.087,2020-8-13T10:50:50Z
2020-08-13T08:53:04Z,42.805,6.029,13.2969,4.59974,2470.063,2020-8-13T10:53:53Z
2020-08-13T08:56:07Z,42.805,6.029,13.2968,4.59974,2470.077,2020-8-13T10:56:56Z
2020-08-13T08:59:10Z,42.805,6.029,13.2972,4.59972,2470.087,2020-8-13T10:59:59Z
2020-08-13T09:02:14Z,42.805,6.029,13.2968,4.59973,2470.124,2020-8-13T11:03:03Z
2020-08-13T09:05:17Z,42.805,6.029,13.2972,4.59973,2470.087,2020-8-13T11:06:06Z
2020-08-13T09:08:20Z,42.805,6.029,13.2971,4.59973,2470.11,2020-8-13T11:09:09Z
2020-08-13T09:11:23Z,42.805,6.029,13.2968,4.59972,2470.11,2020-8-13T11:12:12Z
2020-08-13T09:14:27Z,42.805,6.029,13.2968,4.59973,2470.087,2020-8-13T11:15:16Z
2020-08-13T09:17:30Z,42.805,6.029,13.2968,4.59973,2470.1,2020-8-13T11:18:19Z
2020-08-13T09:20:33Z,42.805,6.029,13.2973,4.59975,2470.1,2020-8-13T11:21:22Z
2020-08-13T09:23:37Z,42.805,6.029,13.2972,4.59973,2470.133,2020-8-13T11:24:26Z
2020-08-13T09:26:40Z,42.805,6.029,13.2969,4.59975,2470.11,2020-8-13T11:27:29Z
2020-08-13T09:29:43Z,42.805,6.029,13.2967,4.59973,2470.087,2020-8-13T11:30:32Z
2020-08-13T09:32:47Z,42.805,6.029,13.2967,4.59972,2470.124,2020-8-13T11:33:36Z
2020-08-13T09:35:50Z,42.805,6.029,13.2971,4.59971,2470.087,2020-8-13T11:36:39Z
2020-08-13T09:38:53Z,42.805,6.029,13.2970,4.59973,2470.133,2020-8-13T11:39:42Z
2020-08-13T09:41:56Z,42.805,6.029,13.2971,4.59975,2470.11,2020-8-13T11:42:45Z
2020-08-13T09:44:59Z,42.805,6.029,13.2967,4.59973,2470.087,2020-8-13T11:45:48Z
2020-08-13T09:48:03Z,42.805,6.029,13.2970,4.59974,2470.087,2020-8-13T11:48:52Z
2020-08-13T09:51:06Z,42.805,6.029,13.2967,4.59973,2470.087,2020-8-13T11:51:55Z
2020-08-13T09:54:09Z,42.805,6.029,13.2971,4.59972,2470.077,2020-8-13T11:54:58Z
2020-08-13T09:57:13Z,42.805,6.029,13.2974,4.59976,2470.124,2020-8-13T11:58:02Z
2020-08-13T10:00:16Z,42.805,6.029,13.2970,4.59971,2470.087,2020-8-13T12:01:05Z
2020-08-13T10:03:19Z,42.805,6.029,13.2972,4.59976,2470.087,2020-8-13T12:04:08Z
2020-08-13T10:06:22Z,42.805,6.029,13.2968,4.59973,2470.087,2020-8-13T12:07:11Z
2020-08-13T10:09:25Z,42.805,6.029,13.2967,4.59972,2470.087,2020-8-13T12:10:14Z
2020-08-13T10:12:29Z,42.805,6.029,13.2972,4.59973,2470.063,2020-8-13T12:13:18Z
2020-08-13T10:15:32Z,42.805,6.029,13.2971,4.59973,2470.087,2020-8-13T12:16:21Z
2020-08-13T10:18:35Z,42.805,6.029,13.2971,4.59974,2470.087,2020-8-13T12:19:24Z
2020-08-13T10:21:38Z,42.805,6.029,13.2969,4.59975,2470.087,2020-8-13T12:22:27Z
2020-08-13T10:24:42Z,42.805,6.029,13.2968,4.59974,2470.133,2020-8-13T12:25:31Z
2020-08-13T10:27:45Z,42.805,6.029,13.2967,4.59973,2470.11,2020-8-13T12:28:34Z
2020-08-13T10:30:48Z,42.805,6.029,13.2971,4.59975,2470.147,2020-8-13T12:31:37Z
2020-08-13T10:33:51Z,42.805,6.029,13.2974,4.59973,2470.087,2020-8-13T12:34:40Z
2020-08-13T10:36:55Z,42.805,6.029,13.2969,4.59974,2470.087,2020-8-13T12:37:44Z
2020-08-13T10:39:58Z,42.805,6.029,13.2970,4.59974,2470.087,2020-8-13T12:40:47Z
2020-08-13T10:43:01Z,42.805,6.029,13.2973,4.59976,2470.124,2020-8-13T12:43:50Z
2020-08-13T10:46:04Z,42.805,6.029,13.2971,4.59974,2470.11,2020-8-13T12:46:53Z
2020-08-13T10:49:08Z,42.805,6.029,13.2975,4.59973,2470.133,2020-8-13T12:49:57Z
2020-08-13T10:52:11Z,42.805,6.029,13.2968,4.59971,2470.11,2020-8-13T12:53:00Z
2020-08-13T10:55:14Z,42.805,6.029,13.2973,4.59973,2470.1,2020-8-13T12:56:03Z
2020-08-13T10:58:17Z,42.805,6.029,13.2971,4.59973,2470.087,2020-8-13T12:59:06Z
2020-08-13T11:01:20Z,42.805,6.029,13.2972,4.59972,2470.133,2020-8-13T13:02:10Z
2020-08-13T11:04:24Z,42.805,6.029,13.2970,4.59973,2470.147,2020-8-13T13:05:13Z
2020-08-13T11:07:27Z,42.805,6.029,13.2970,4.59972,2470.133,2020-8-13T13:08:16Z
2020-08-13T11:10:30Z,42.805,6.029,13.2966,4.59973,2470.11,2020-8-13T13:11:19Z
2020-08-13T11:13:34Z,42.805,6.029,13.2968,4.59973,2470.087,2020-8-13T13:14:23Z
2020-08-13T11:16:37Z,42.805,6.029,13.2970,4.59974,2470.087,2020-8-13T13:17:26Z
2020-08-13T11:19:40Z,42.805,6.029,13.2969,4.59973,2470.11,2020-8-13T13:20:29Z
2020-08-13T11:22:43Z,42.805,6.029,13.2971,4.59973,2470.147,2020-8-13T13:23:32Z
2020-08-13T11:25:47Z,42.805,6.029,13.2971,4.59974,2470.11,2020-8-13T13:26:36Z
2020-08-13T11:28:50Z,42.805,6.029,13.2968,4.59974,2470.156,2020-8-13T13:29:39Z
2020-08-13T11:31:53Z,42.805,6.029,13.2966,4.59973,2470.087,2020-8-13T13:32:42Z
2020-08-13T11:34:56Z,42.805,6.029,13.2974,4.59973,2470.11,2020-8-13T13:35:45Z
2020-08-13T11:37:59Z,42.805,6.029,13.2972,4.59973,2470.119,2020-8-13T13:38:48Z
2020-08-13T11:41:03Z,42.805,6.029,13.2974,4.59973,2470.133,2020-8-13T13:41:52Z
2020-08-13T11:44:06Z,42.805,6.029,13.2968,4.59973,2470.133,2020-8-13T13:44:55Z
2020-08-13T11:47:09Z,42.805,6.029,13.2971,4.59973,2470.171,2020-8-13T13:47:58Z
2020-08-13T11:50:13Z,42.805,6.029,13.2968,4.59973,2470.147,2020-8-13T13:51:02Z
2020-08-13T11:53:16Z,42.805,6.029,13.2969,4.59973,2470.147,2020-8-13T13:54:05Z
2020-08-13T11:56:19Z,42.805,6.029,13.2968,4.59973,2470.156,2020-8-13T13:57:08Z
2020-08-13T11:59:22Z,42.805,6.029,13.2972,4.59973,2470.133,2020-8-13T14:00:11Z
2020-08-13T12:02:26Z,42.805,6.029,13.2971,4.59974,2470.11,2020-8-13T14:03:15Z
2020-08-13T12:05:29Z,42.805,6.029,13.2971,4.59974,2470.171,2020-8-13T14:06:18Z
2020-08-13T12:08:32Z,42.805,6.029,13.2971,4.59973,2470.133,2020-8-13T14:09:21Z
2020-08-13T12:11:35Z,42.805,6.029,13.2968,4.59973,2470.133,2020-8-13T14:12:24Z
2020-08-13T12:14:38Z,42.805,6.029,13.2968,4.59973,2470.156,2020-8-13T14:15:27Z
2020-08-13T12:17:42Z,42.805,6.029,13.2971,4.59975,2470.156,2020-8-13T14:18:31Z
2020-08-13T12:20:45Z,42.805,6.029,13.2966,4.59973,2470.171,2020-8-13T14:21:34Z
2020-08-13T12:23:48Z,42.805,6.029,13.2970,4.59974,2470.156,2020-8-13T14:24:37Z
2020-08-13T12:26:51Z,42.805,6.029,13.2974,4.59973,2470.156,2020-8-13T14:27:40Z
2020-08-13T12:29:55Z,42.805,6.029,13.2974,4.59975,2470.171,2020-8-13T14:30:44Z
2020-08-13T12:32:58Z,42.805,6.029,13.2970,4.59973,2470.156,2020-8-13T14:33:47Z
2020-08-13T12:36:01Z,42.805,6.029,13.2968,4.59974,2470.156,2020-8-13T14:36:50Z
2020-08-13T12:39:05Z,42.805,6.029,13.2968,4.59973,2470.171,2020-8-13T14:39:54Z
2020-08-13T12:42:08Z,42.805,6.029,13.2969,4.59973,2470.156,2020-8-13T14:42:57Z
2020-08-13T12:45:11Z,42.805,6.029,13.2976,4.59974,2470.18,2020-8-13T14:46:00Z
2020-08-13T12:48:14Z,42.805,6.029,13.2972,4.59975,2470.18,2020-8-13T14:49:03Z
2020-08-13T12:51:18Z,42.805,6.029,13.2969,4.59975,2470.156,2020-8-13T14:52:07Z
2020-08-13T12:54:21Z,42.805,6.029,13.2968,4.59973,2470.147,2020-8-13T14:55:10Z
2020-08-13T12:57:24Z,42.805,6.029,13.2968,4.59974,2470.133,2020-8-13T14:58:13Z
2020-08-13T13:00:27Z,42.805,6.029,13.2972,4.59973,2470.18,2020-8-13T15:01:16Z
2020-08-13T13:03:31Z,42.805,6.029,13.2971,4.59975,2470.18,2020-8-13T15:04:20Z
2020-08-13T13:06:34Z,42.805,6.029,13.2974,4.59974,2470.203,2020-8-13T15:07:23Z
2020-08-13T13:09:37Z,42.805,6.029,13.2971,4.59973,2470.194,2020-8-13T15:10:26Z
2020-08-13T13:12:40Z,42.805,6.029,13.2968,4.59973,2470.194,2020-8-13T15:13:29Z
2020-08-13T13:15:44Z,42.805,6.029,13.2973,4.59974,2470.194,2020-8-13T15:16:33Z
2020-08-13T13:18:47Z,42.805,6.029,13.2970,4.59974,2470.156,2020-8-13T15:19:36Z
2020-08-13T13:21:50Z,42.805,6.029,13.2974,4.59974,2470.18,2020-8-13T15:22:39Z
2020-08-13T13:24:53Z,42.805,6.029,13.2972,4.59973,2470.156,2020-8-13T15:25:42Z
2020-08-13T13:27:56Z,42.805,6.029,13.2971,4.59973,2470.147,2020-8-13T15:28:45Z
2020-08-13T13:31:00Z,42.805,6.029,13.2969,4.59973,2470.203,2020-8-13T15:31:49Z
2020-08-13T13:34:03Z,42.805,6.029,13.2965,4.59973,2470.156,2020-8-13T15:34:52Z
2020-08-13T13:37:06Z,42.805,6.029,13.2968,4.59973,2470.156,2020-8-13T15:37:55Z
2020-08-13T13:40:10Z,42.805,6.029,13.2971,4.59973,2470.194,2020-8-13T15:40:59Z
2020-08-13T13:43:13Z,42.805,6.029,13.2972,4.59973,2470.156,2020-8-13T15:44:02Z
2020-08-13T13:46:16Z,42.805,6.029,13.2971,4.59973,2470.156,2020-8-13T15:47:05Z
2020-08-13T13:49:19Z,42.805,6.029,13.2969,4.59974,2470.133,2020-8-13T15:50:08Z
2020-08-13T13:52:23Z,42.805,6.029,13.2970,4.59973,2470.171,2020-8-13T15:53:12Z
2020-08-13T13:55:26Z,42.805,6.029,13.2968,4.59973,2470.18,2020-8-13T15:56:15Z
2020-08-13T13:58:29Z,42.805,6.029,13.2969,4.59975,2470.18,2020-8-13T15:59:18Z
2020-08-13T14:01:33Z,42.805,6.029,13.2968,4.59973,2470.18,2020-8-13T16:02:22Z
2020-08-13T14:04:36Z,42.805,6.029,13.2968,4.59973,2470.18,2020-8-13T16:05:25Z
2020-08-13T14:07:39Z,42.805,6.029,13.2973,4.59973,2470.171,2020-8-13T16:08:28Z
2020-08-13T14:10:42Z,42.805,6.029,13.2968,4.59975,2470.194,2020-8-13T16:11:31Z
2020-08-13T14:13:46Z,42.805,6.029,13.2971,4.59974,2470.18,2020-8-13T16:14:35Z
2020-08-13T14:16:49Z,42.805,6.029,13.2969,4.59973,2470.18,2020-8-13T16:17:38Z
2020-08-13T14:19:52Z,42.805,6.029,13.2973,4.59973,2470.203,2020-8-13T16:20:42Z
2020-08-13T14:22:56Z,42.805,6.029,13.2971,4.59973,2470.18,2020-8-13T16:23:45Z
2020-08-13T14:25:59Z,42.805,6.029,13.2968,4.59973,2470.18,2020-8-13T16:26:48Z
2020-08-13T14:29:02Z,42.805,6.029,13.2972,4.59976,2470.18,2020-8-13T16:29:52Z
2020-08-13T14:32:06Z,42.805,6.029,13.2970,4.59974,2470.18,2020-8-13T16:32:55Z
2020-08-13T14:35:09Z,42.805,6.029,13.2973,4.59974,2470.18,2020-8-13T16:35:58Z
2020-08-13T14:38:12Z,42.805,6.029,13.2971,4.59973,2470.18,2020-8-13T16:39:01Z
2020-08-13T14:41:15Z,42.805,6.029,13.2968,4.59974,2470.24,2020-8-13T16:42:04Z
2020-08-13T14:44:19Z,42.805,6.029,13.2972,4.59973,2470.18,2020-8-13T16:45:08Z
2020-08-13T14:47:22Z,42.805,6.029,13.2972,4.59973,2470.18,2020-8-13T16:48:11Z
2020-08-13T14:50:25Z,42.805,6.029,13.2968,4.59973,2470.203,2020-8-13T16:51:14Z
2020-08-13T14:53:28Z,42.805,6.029,13.2968,4.59975,2470.156,2020-8-13T16:54:17Z
2020-08-13T14:56:32Z,42.805,6.029,13.2969,4.59974,2470.194,2020-8-13T16:57:21Z
2020-08-13T14:59:35Z,42.805,6.029,13.2971,4.59974,2470.194,2020-8-13T17:00:24Z
2020-08-13T15:02:38Z,42.805,6.029,13.2969,4.59975,2470.156,2020-8-13T17:03:27Z
2020-08-13T15:05:42Z,42.805,6.029,13.2968,4.59973,2470.194,2020-8-13T17:06:31Z
2020-08-13T15:08:45Z,42.805,6.029,13.2971,4.59974,2470.194,2020-8-13T17:09:34Z
2020-08-13T15:11:48Z,42.805,6.029,13.2974,4.59974,2470.156,2020-8-13T17:12:37Z
2020-08-13T15:14:51Z,42.805,6.029,13.2971,4.59973,2470.194,2020-8-13T17:15:40Z